Погода в Усть-Бряни

Россия / Республика Бурятия     51°56′26″N   108°08′17″E
В апреле 2022 года жителям России запретили посещать сайт meteo.paraplan.net по решению Генеральной прокуратуры. Аудитория сайта уменьшилась в 10 раз. Владельцы сайта не видят смысла в поддержке погодного сервера в таких условиях. Сайт будет закрыт в октябре.
темп.,
°C
ветер,
м/с
пор.,
м/с
влажн.,
%
обл.,
%
осадки,
мм/ч
давл.,
гПа
погр.,
м
30 сентября, пт
пт3023:00+4св1171100 0.0 101010
02:00+2ссв11803 0.0 101010
05:00+1ссв11865 0.0 101010
08:00+3всв117910 0.0 101168
11:00+8юв2463100 0.0 1009867
14:00+8ююв2366100 0.0 1008854
17:00+8в1170100 0.0 100819
20:00+4сз3684100 0.0 1011331
1 октября, сб
сб123:00+3з2486100 0.0 1011305
02:00+1зсз51193100 4.3 1012609
05:00+1зсз5108696 4.1 1015759
08:00−1з5108383 4.2 1019994
11:00+1з8117180 0.1 10211193
14:00+2з7106677 0.3 10221515
17:00+1з6106827 0.2 10231398
20:00−2з37754 0.3 1026202
2 октября, вс
вс223:00−4з36823 0.0 1028170
02:00−3з4118111 0.0 1029485
05:00−5з368317 0.0 1030193
08:00−3з497726 0.1 1032935
11:000зсз6954100 0.1 10321785
14:00+1сз695093 0.3 10321933
17:000зсз595831 0.1 10321442
20:00−4з238511 0.2 103589
3 октября, пн
пн323:00−5з238666 0.1 103676
02:00−5з248910 0.1 103778
05:00−3з498619 0.1 1036397
08:00−2з498171 0.1 1037772
11:00+1з586491 0.2 10361346
14:00+2зсз686084 0.5 10361444
17:00+1зсз586937 0.3 1035979
20:00−4з22909 0.3 103733
4 октября, вт
вт423:00−5з22919 0.0 103732
02:00−6з229257 0.0 103729
05:00−5зюз229190 0.0 103633
08:00−4зюз1282100 0.0 1035141
11:00+2з2556100 0.0 10321111
14:00+3з5654100 0.0 10301448
17:00+1зсз477398 0.6 1030814
20:00−4зсз229111 0.8 103223